Home   Weather   Fukuoka   Past weeks

Flag for Japan Past Weather in Fukuoka, Japan — Yesterday and Last 2 Weeks

Now
46 °F

Passing clouds.


Feels Like: 41 °F
Forecast: 38 / 58 °F
Wind: 12 mph from Northeast

Location: Fukuoka Airport

Current Time: Feb 21, 2017 at 6:54:11 pm

Latest Report: Feb 21, 2017 at 6:00 pm


Visibility: N/A

Pressure: 30.33 "Hg

Humidity: 43%

Dew Point: 25 °F

Location of FukuokaLocation

Past Weather in Fukuoka — Graph

°F

Fukuoka Temperature Yesterday

Maximum temperature yesterday: 63 °F (at 10:30 am)
Minimum temperature yesterday: 46 °F (at 11:00 pm)
Average temperature yesterday: 54 °F

High & Low Weather Summary for the Past Weeks

 TemperatureHumidityPressure
High66 °F (Feb 17, 11:30 am)88% (Feb 20, 8:00 am)30.45 "Hg (Feb 20, 8:00 am)
Low32 °F (Feb 10, 6:00 am)24% (Feb 18, 2:30 pm)29.74 "Hg (Feb 20, 8:30 am)
Average45 °F56%30.13 "Hg
* Reported Feb 6 5:00 pm — Feb 21 5:30 pm, Fukuoka, Weather by CustomWeather, © 2017

Note: Actual official high and low records may vary slightly from our data, if they occured in-between our weather recording intervals... More about our weather records

Advertising

Fukuoka Weather History for the Previous 24 Hours

Scroll right to see more
 ConditionsComfort  
Time TempWeatherWind HumidityBarometerVisibility
5:30 pm
Tue, Feb 21
48 °FPassing clouds.10 mph40%30.33 "HgN/A
5:00 pm48 °FPassing clouds.13 mph40%30.33 "HgN/A
4:30 pm48 °FPassing clouds.16 mph40%30.33 "HgN/A
4:00 pm50 °FPassing clouds.15 mph37%30.33 "HgN/A
3:30 pm50 °FPassing clouds.14 mph37%30.33 "HgN/A
3:00 pm52 °FPassing clouds.9 mph38%30.33 "HgN/A
2:30 pm50 °FPassing clouds.9 mph37%30.33 "HgN/A
2:00 pm50 °FScattered clouds.12 mph37%30.36 "HgN/A
1:30 pm50 °FScattered clouds.10 mph35%30.36 "HgN/A
1:00 pm48 °FPartly sunny.14 mph37%30.36 "HgN/A
12:30 pm50 °FScattered clouds.13 mph35%30.36 "HgN/A
12:11 pm48 °FScattered clouds.12 mph37%30.39 "HgN/A
12:00 pm48 °FScattered clouds.10 mph37%30.36 "HgN/A
11:30 am48 °FScattered clouds.9 mph40%30.36 "HgN/A
11:00 am46 °FBroken clouds.10 mph40%30.36 "HgN/A
10:30 am46 °FBroken clouds.8 mph43%30.36 "HgN/A
10:00 am46 °FBroken clouds.9 mph43%30.36 "HgN/A
9:30 am45 °FBroken clouds.7 mph49%30.36 "HgN/A
9:00 am45 °FBroken clouds.9 mph49%30.33 "HgN/A
8:30 am45 °FBroken clouds.12 mph42%30.33 "HgN/A
8:00 am45 °FBroken clouds.6 mph53%30.33 "HgN/A
7:30 am45 °FBroken clouds.7 mph53%30.30 "HgN/A
7:00 am45 °FPartly sunny.12 mph46%30.30 "HgN/A
6:30 am45 °FPassing clouds.14 mph39%30.30 "HgN/A
6:00 am45 °FPassing clouds.14 mph42%30.27 "HgN/A
5:30 am45 °FPassing clouds.12 mph39%30.27 "HgN/A
5:00 am45 °FPassing clouds.13 mph39%30.27 "HgN/A
4:30 am45 °FPassing clouds.15 mph42%30.24 "HgN/A
4:00 am45 °FPassing clouds.13 mph49%30.21 "HgN/A
3:30 am45 °FPassing clouds.15 mph49%30.21 "HgN/A
3:00 am45 °FPassing clouds.14 mph49%30.21 "HgN/A
2:30 am45 °FPassing clouds.13 mph53%30.21 "HgN/A
2:00 am45 °FPassing clouds.14 mph57%30.18 "HgN/A
1:30 am45 °FPassing clouds.16 mph57%30.18 "HgN/A
1:00 am45 °FPassing clouds.14 mph57%30.15 "HgN/A
12:30 am46 °FPassing clouds.16 mph53%30.15 "HgN/A
12:00 am46 °FPassing clouds.17 mph53%30.12 "HgN/A
11:30 pm
Mon, Feb 20
46 °FPassing clouds.17 mph57%30.12 "HgN/A
11:00 pm46 °FPassing clouds.13 mph53%30.09 "HgN/A
10:30 pm48 °FPassing clouds.18 mph50%30.09 "HgN/A
10:00 pm48 °FPassing clouds.16 mph46%30.07 "HgN/A
9:30 pm50 °FPassing clouds.16 mph35%30.04 "HgN/A
9:16 pm50 °FPassing clouds.17 mph32%30.04 "HgN/A
9:00 pm50 °FPassing clouds.16 mph32%30.04 "HgN/A
8:30 pm52 °FPassing clouds.17 mph32%30.01 "HgN/A
8:00 pm52 °FPassing clouds.18 mph35%30.01 "HgN/A
7:30 pm52 °FPartly cloudy.15 mph50%29.98 "HgN/A
7:00 pm50 °FPassing clouds.6 mph50%29.95 "HgN/A
6:30 pm50 °FPassing clouds.8 mph47%29.95 "HgN/A
6:00 pm52 °FScattered clouds.10 mph47%29.92 "HgN/A
Weather by CustomWeather, © 2017

See weather overviewHow to use our weather pages